Wind_Speed
15 13 12 12 13 13 13 13 14 14 13 14 15 15 16 17 16 14 13 13 11 9 9 9 8 7 7 6 8 8 9 10 11 12 12 13 14 15 14 14 15 15 14 16 17 19 20
14 15 15 15 15 16 16 15 14 15 15 14 14 15 16 17 18 15 14 14 13 11 10 8 8 8 7 8 9 9 9 9 11 12 13 14 15 16 16 16 16 19 18 18 18 19 21
14 16 18 18 18 17 17 18 18 18 17 16 15 15 16 17 17 17 16 16 14 13 11 9 10 9 8 9 10 10 11 12 12 13 14 15 16 16 18 18 19 19 20 20 20 21 22
19 19 19 20 20 20 19 20 20 20 20 20 18 16 16 17 18 17 16 14 15 15 12 12 10 10 9 9 10 11 13 15 16 17 17 18 19 19 20 20 20 21 22 22 22 23 24
23 22 21 21 22 23 23 22 22 23 23 23 22 21 18 17 16 16 16 18 16 15 15 13 14 14 12 13 13 14 14 15 17 18 19 20 20 21 22 21 22 22 23 22 23 23 24
27 23 20 21 24 25 26 26 25 25 26 25 25 24 22 20 19 17 18 19 19 18 17 16 16 16 18 18 16 17 17 18 19 19 18 19 20 21 21 22 22 22 24 24 22 25 26
29 30 28 26 25 27 29 30 29 29 28 27 26 26 24 24 23 22 20 22 23 21 19 18 17 18 20 22 21 20 21 21 22 20 21 22 23 22 23 23 24 24 25 26 25 26 29
32 31 32 30 29 30 31 32 31 31 30 29 28 28 28 25 25 25 24 24 24 24 22 21 21 20 20 22 22 22 21 22 20 21 24 26 24 25 25 26 27 27 28 28 29 29 31
36 36 36 35 33 32 33 35 35 34 33 33 31 30 30 27 27 28 29 29 29 26 24 24 24 21 21 21 22 23 23 23 23 26 26 25 27 27 27 27 28 28 29 29 30 30 32
37 38 37 37 38 39 37 38 36 35 32 34 34 34 34 31 29 30 32 33 33 29 28 24 25 24 23 24 23 25 26 24 26 28 28 27 28 30 30 29 28 29 30 31 31 33 35
40 45 46 45 41 42 40 37 38 36 37 35 35 36 35 34 32 31 32 32 31 32 32 23 22 21 22 22 24 25 25 28 31 31 31 28 29 29 29 29 32 30 32 34 36 38 39
39 40 41 38 36 35 34 36 37 38 36 33 34 36 34 32 30 27 29 31 30 29 30 28 28 26 24 26 27 29 32 33 34 35 34 33 34 34 34 35 35 35 36 38 40 42 45
32 35 40 42 35 33 37 38 39 39 36 36 39 37 35 31 32 33 32 30 26 25 27 28 29 31 31 30 31 32 33 35 34 37 38 38 39 39 40 40 40 41 41 44 46 47 47
30 28 27 29 35 37 35 38 36 35 34 37 36 33 33 31 31 33 31 28 26 26 25 28 28 29 32 32 35 36 38 38 39 40 43 43 43 41 42 44 45 47 47 46 49 52 52
28 29 30 37 38 41 40 39 37 39 38 39 34 35 33 32 31 33 33 29 31 31 32 33 33 33 29 32 37 38 38 40 39 40 44 47 49 46 47 48 50 50 50 50 53 54 55
30 31 34 37 36 38 39 38 43 44 42 40 39 39 38 36 35 35 35 33 34 36 37 37 36 38 37 32 36 37 40 40 40 41 44 48 50 51 52 52 53 54 54 56 56 56 60
30 32 32 34 36 36 39 41 40 37 36 39 41 39 35 35 35 33 33 37 38 40 42 43 40 39 34 35 33 36 40 40 41 42 44 46 50 52 52 55 59 60 60 59 59 60 59
32 33 33 28 27 28 30 35 36 35 37 38 37 37 37 34 35 33 35 39 39 37 38 40 39 38 39 40 43 43 39 37 40 43 45 47 51 52 53 56 59 60 60 61 62 61 61
30 30 29 30 30 34 33 34 33 35 37 36 37 36 36 35 35 37 42 41 39 36 36 37 38 37 35 37 38 40 38 40 43 46 47 49 53 53 53 53 54 57 59 62 64 62 64
33 32 31 33 33 34 34 34 33 34 35 38 38 37 36 38 38 40 44 41 38 39 40 40 39 36 41 42 44 46 46 46 49 50 49 51 54 54 55 54 55 57 58 61 65 66 63
30 30 33 34 33 32 34 34 34 34 35 36 38 39 40 41 41 41 42 44 42 41 43 43 42 46 51 55 51 51 51 48 49 52 53 54 54 55 55 57 58 58 58 60 61 60 65
31 33 34 34 32 32 32 34 36 37 37 37 39 41 42 43 45 45 45 45 47 47 46 45 47 50 52 51 53 55 55 57 60 57 54 54 57 55 55 56 55 53 55 57 60 62 65
35 33 32 33 31 31 31 30 32 35 37 37 38 41 43 45 46 46 45 47 48 49 49 49 51 53 55 54 55 55 56 55 54 51 50 51 54 57 56 55 55 55 56 59 61 62 61
34 33 33 32 30 29 30 30 30 32 34 35 37 38 41 44 45 46 48 49 52 54 54 53 55 57 57 57 56 57 57 56 54 52 53 55 55 58 56 55 57 57 57 58 60 59 63
35 34 35 32 32 30 27 29 31 32 33 33 36 37 40 43 45 48 50 50 54 56 57 57 58 60 57 54 53 54 54 55 53 53 54 54 56 58 56 55 55 57 60 61 59 61 63
34 33 34 32 32 29 29 29 31 32 32 34 35 37 40 41 42 43 45 48 51 51 53 53 52 50 48 47 49 51 51 51 51 53 54 55 53 55 59 59 59 61 61 59 60 63 60
33 33 34 33 30 30 30 31 33 33 34 35 37 40 42 43 41 43 42 43 46 48 48 44 43 46 47 49 51 50 51 52 54 54 53 55 58 58 59 60 62 59 58 58 61 61 65
34 33 34 33 32 31 32 32 34 34 36 38 39 41 44 45 45 47 48 48 50 50 47 46 50 50 48 45 48 50 52 53 53 54 56 57 59 59 59 60 62 60 59 60 62 64 65
35 35 34 33 33 32 33 33 34 35 37 38 41 42 46 47 47 48 50 50 51 54 54 53 54 51 55 55 57 56 54 54 56 57 56 58 60 59 58 56 57 58 60 61 62 66 69
Wind_Direction
261 261 268 283 298 306 304 307 313 312 315 322 320 321 324 329 328 328 332 334 336 320 320 312 310 296 286 268 261 260 261 261 258 254 253 249 247 248 247 243 243 249 249 248 254 255 258
262 261 265 278 289 291 300 300 299 304 307 311 315 322 320 320 321 323 325 323 325 323 317 305 298 292 279 267 264 261 261 259 255 256 252 252 250 248 245 243 246 251 252 254 256 259 262
261 264 265 271 283 287 289 298 296 294 299 300 304 312 318 320 316 317 324 320 311 314 308 293 294 291 282 269 271 265 261 260 257 252 254 255 253 251 251 247 248 251 254 258 261 264 266
258 262 266 270 276 283 286 289 297 292 293 296 299 301 311 317 316 316 321 321 311 304 302 290 281 276 275 278 281 276 270 265 262 258 255 254 255 256 254 252 253 256 257 260 264 266 267
256 260 262 267 275 283 287 288 288 292 291 293 292 293 294 304 306 307 307 317 319 303 302 296 284 273 267 272 279 284 282 278 272 265 261 260 259 257 255 258 260 262 262 262 263 266 268
259 256 263 270 274 278 283 286 286 286 288 287 289 287 288 293 300 300 303 309 309 306 299 297 289 279 271 269 272 278 279 280 280 270 259 254 258 259 260 260 260 260 262 260 261 266 267
259 253 264 272 278 279 281 284 286 284 288 284 287 284 286 284 290 298 297 304 301 296 295 292 291 287 277 270 269 277 275 279 278 262 258 265 262 261 261 262 263 261 264 266 270 267 270
257 255 260 267 275 284 285 284 283 282 283 282 285 283 283 286 285 289 292 303 308 294 288 293 292 287 281 273 271 272 276 278 267 261 268 271 269 264 264 264 264 265 265 268 268 272 272
255 260 262 262 269 282 285 283 281 280 280 281 282 284 283 285 281 284 290 295 302 298 286 286 289 288 281 277 272 273 274 275 265 273 271 269 268 266 265 265 266 269 272 272 273 270 273
260 259 263 269 271 275 284 283 278 277 281 282 282 283 285 281 280 283 288 295 297 292 293 286 283 284 279 275 272 273 275 266 270 273 273 275 272 267 266 266 267 271 274 274 274 275 276
254 261 264 268 272 275 278 277 277 274 280 285 282 283 290 283 282 283 287 290 291 292 295 285 285 284 278 274 272 272 268 269 273 272 273 275 271 267 266 270 272 276 274 277 278 279 281
258 266 266 271 273 272 273 272 273 276 280 281 284 288 287 285 285 287 284 287 288 293 295 287 284 284 284 280 271 269 270 273 272 272 271 271 268 267 269 270 272 274 276 278 279 280 282
259 267 268 270 274 271 272 271 271 273 276 280 283 280 286 286 288 288 289 285 284 292 294 293 291 289 284 280 278 272 270 272 271 273 273 271 269 267 268 269 272 274 276 279 279 280 282
263 268 264 264 277 277 273 274 270 269 278 280 277 278 280 282 284 290 286 282 285 288 288 291 295 293 290 286 280 280 277 274 274 274 275 272 270 269 269 270 272 273 277 280 283 284 286
239 262 261 268 280 275 271 272 268 274 276 277 278 282 281 283 285 284 281 279 283 281 282 287 288 288 291 285 281 279 278 277 278 277 278 278 273 270 268 270 271 274 276 280 280 281 282
268 272 276 277 274 272 278 282 270 279 276 276 276 279 283 283 283 279 279 279 280 280 285 287 290 290 289 285 285 283 280 281 282 280 279 278 279 277 276 275 275 274 275 276 279 280 281
261 267 267 271 272 274 277 274 277 275 276 276 277 280 281 281 280 281 281 280 279 281 284 286 284 284 286 291 290 287 286 284 284 285 283 284 281 280 281 282 279 278 277 277 277 278 282
261 261 264 265 268 275 280 278 274 275 279 276 278 281 282 283 281 279 287 290 286 287 287 285 282 282 282 285 285 289 290 291 290 286 284 286 285 284 283 282 281 281 279 278 277 279 282
259 262 263 270 275 282 279 280 283 283 284 280 278 278 280 286 284 284 289 290 287 286 279 281 286 285 286 286 285 282 286 292 295 293 291 288 288 289 288 285 284 282 281 281 282 283 285
256 263 267 270 269 278 274 273 276 276 278 278 277 279 280 281 282 285 288 288 292 289 279 281 282 283 286 286 290 290 290 292 294 294 292 292 292 290 289 288 287 284 283 283 282 284 288
264 265 267 271 270 273 279 275 274 274 275 278 279 282 282 282 283 284 287 290 292 289 283 281 280 284 285 287 288 287 285 289 292 293 292 294 293 293 292 290 288 287 286 286 287 289 288
262 267 270 272 273 275 274 276 276 275 274 276 277 281 283 283 283 286 287 289 289 289 288 285 284 285 288 288 287 284 282 286 289 290 292 292 295 294 293 291 290 289 288 290 291 289 289
265 268 271 271 272 275 275 277 278 279 280 280 281 283 283 284 286 286 287 286 286 286 285 285 285 286 286 286 286 285 287 287 289 288 288 292 296 295 293 292 291 288 293 290 290 292 291
266 268 270 269 269 271 273 273 276 279 280 282 283 283 284 284 284 285 285 283 283 283 281 281 284 286 287 289 290 286 285 287 286 287 289 291 294 296 295 292 291 295 292 293 292 294 293
265 267 268 266 269 267 267 271 273 275 279 284 284 286 287 286 287 287 287 286 284 284 284 286 287 289 290 293 293 291 290 287 284 284 291 293 295 294 292 295 296 295 295 296 298 294 293
262 265 265 265 263 261 266 272 274 278 283 286 288 290 291 292 292 294 290 287 287 287 286 288 288 289 288 288 292 294 295 293 289 290 293 295 294 295 296 295 298 297 298 298 295 293 296
256 259 260 260 262 266 270 274 277 281 284 289 289 291 293 295 297 298 301 298 295 291 290 289 290 290 292 292 291 292 294 292 290 289 293 293 294 294 295 296 296 296 295 294 292 292 293
253 255 259 262 264 268 271 273 277 284 287 291 294 295 296 298 298 299 301 302 301 295 292 291 291 293 292 292 298 297 294 294 295 294 294 294 294 295 292 293 296 296 294 292 292 292 292
253 255 257 261 265 269 274 278 281 285 288 294 297 299 299 302 301 301 303 301 299 295 290 290 292 290 287 291 294 299 299 295 294 295 294 293 293 291 290 293 293 292 291 292 292 292 293
Height
5807 5806 5806 5806 5805 5804 5803 5802 5800 5799 5797 5796 5795 5794 5792 5790 5788 5787 5786 5784 5782 5780 5780 5779 5778 5777 5777 5776 5776 5775 5776 5776 5777 5777 5777 5778 5778 5779 5780 5780 5781 5781 5782 5783 5783 5784 5784
5804 5804 5803 5803 5803 5802 5801 5799 5797 5796 5795 5794 5793 5792 5790 5788 5786 5784 5783 5781 5780 5779 5778 5777 5776 5775 5776 5776 5774 5774 5773 5773 5774 5774 5774 5774 5775 5775 5776 5777 5778 5776 5778 5778 5779 5779 5780
5800 5800 5800 5799 5800 5799 5798 5797 5795 5794 5792 5791 5790 5788 5787 5785 5784 5782 5780 5779 5778 5777 5776 5775 5775 5774 5774 5773 5772 5772 5771 5771 5771 5771 5771 5771 5771 5772 5772 5773 5773 5773 5773 5773 5774 5774 5774
5795 5796 5795 5795 5795 5795 5795 5794 5793 5792 5789 5788 5787 5785 5784 5782 5781 5779 5777 5776 5775 5774 5773 5772 5772 5772 5772 5770 5769 5769 5769 5768 5768 5768 5768 5767 5767 5768 5767 5768 5768 5768 5768 5769 5768 5768 5768
5790 5791 5790 5790 5791 5790 5790 5789 5789 5788 5787 5784 5782 5781 5779 5779 5777 5775 5775 5773 5772 5770 5769 5768 5768 5768 5768 5768 5767 5766 5765 5765 5764 5764 5764 5763 5763 5763 5763 5763 5763 5762 5763 5763 5763 5763 5763
5785 5786 5785 5785 5786 5785 5785 5784 5783 5783 5782 5780 5778 5777 5776 5774 5773 5772 5771 5770 5769 5768 5766 5765 5764 5765 5764 5764 5763 5762 5762 5760 5760 5760 5760 5759 5759 5759 5758 5758 5758 5757 5756 5757 5758 5757 5757
5779 5780 5780 5780 5780 5780 5779 5779 5778 5777 5777 5776 5774 5772 5771 5770 5769 5768 5768 5766 5766 5764 5762 5761 5760 5759 5758 5758 5758 5758 5758 5757 5756 5755 5755 5754 5754 5754 5752 5752 5751 5751 5750 5750 5750 5751 5750
5772 5773 5773 5773 5774 5773 5773 5773 5772 5771 5771 5771 5769 5768 5766 5765 5764 5763 5762 5761 5759 5759 5759 5757 5755 5754 5753 5752 5753 5752 5753 5753 5751 5750 5750 5750 5750 5749 5748 5748 5747 5745 5744 5744 5743 5743 5742
5764 5765 5766 5766 5766 5767 5766 5765 5765 5765 5765 5765 5764 5763 5762 5759 5758 5758 5757 5755 5753 5751 5752 5753 5749 5748 5748 5748 5747 5747 5747 5746 5746 5745 5745 5744 5744 5743 5742 5741 5740 5739 5737 5736 5736 5734 5732
5756 5757 5758 5759 5760 5760 5759 5758 5758 5758 5758 5757 5757 5756 5756 5755 5753 5752 5751 5749 5747 5745 5745 5746 5744 5743 5742 5741 5742 5741 5740 5741 5740 5739 5738 5738 5737 5736 5735 5734 5732 5732 5730 5728 5727 5726 5724
5747 5748 5749 5750 5751 5752 5752 5752 5751 5751 5750 5749 5749 5748 5748 5748 5747 5746 5745 5742 5740 5740 5738 5740 5738 5736 5735 5736 5736 5735 5734 5734 5734 5731 5731 5732 5729 5728 5727 5727 5725 5725 5722 5720 5718 5716 5713
5737 5739 5740 5741 5743 5743 5743 5744 5744 5743 5743 5741 5741 5741 5740 5740 5740 5739 5736 5735 5734 5735 5732 5733 5731 5731 5731 5729 5729 5729 5728 5726 5725 5724 5723 5723 5721 5721 5720 5717 5716 5713 5712 5709 5707 5704 5702
5728 5730 5732 5734 5735 5736 5736 5735 5736 5735 5735 5734 5733 5732 5733 5733 5733 5731 5729 5728 5729 5727 5726 5725 5724 5723 5723 5723 5722 5719 5718 5718 5717 5715 5715 5713 5711 5711 5710 5708 5706 5704 5702 5698 5695 5692 5691
5720 5722 5724 5726 5728 5729 5728 5728 5728 5728 5728 5727 5726 5724 5724 5724 5724 5723 5722 5723 5722 5720 5718 5717 5716 5715 5715 5715 5713 5712 5709 5708 5707 5705 5702 5701 5700 5701 5700 5697 5696 5692 5691 5687 5681 5677 5675
5712 5712 5716 5718 5721 5720 5721 5721 5720 5720 5719 5719 5718 5717 5717 5716 5716 5715 5715 5716 5714 5713 5712 5709 5708 5705 5706 5705 5702 5700 5699 5697 5698 5695 5692 5688 5686 5688 5686 5685 5683 5681 5678 5674 5668 5666 5662
5703 5706 5708 5709 5712 5712 5713 5712 5712 5711 5710 5710 5709 5708 5709 5709 5707 5707 5708 5707 5705 5702 5701 5700 5700 5698 5696 5697 5692 5690 5687 5688 5686 5684 5680 5676 5674 5673 5673 5672 5670 5667 5664 5659 5655 5650 5646
5698 5699 5701 5703 5703 5703 5704 5703 5703 5703 5702 5701 5700 5699 5700 5700 5699 5699 5699 5699 5697 5695 5693 5690 5690 5687 5686 5684 5682 5680 5677 5677 5676 5672 5668 5665 5662 5661 5661 5660 5655 5652 5648 5645 5639 5635 5631
5689 5692 5693 5695 5696 5695 5696 5695 5695 5694 5695 5693 5692 5691 5692 5692 5692 5691 5691 5689 5687 5688 5685 5682 5680 5679 5677 5674 5672 5669 5668 5666 5663 5660 5657 5653 5648 5646 5646 5644 5640 5638 5635 5629 5622 5621 5617
5682 5684 5686 5687 5688 5688 5688 5688 5688 5687 5687 5686 5684 5683 5682 5683 5682 5682 5681 5680 5677 5678 5675 5673 5671 5670 5669 5665 5662 5659 5658 5655 5652 5648 5645 5641 5635 5633 5631 5630 5626 5622 5619 5613 5607 5604 5602
5674 5676 5678 5679 5680 5679 5679 5680 5680 5679 5678 5678 5677 5673 5675 5674 5673 5673 5670 5671 5669 5667 5665 5664 5662 5662 5657 5654 5653 5649 5646 5643 5640 5637 5632 5627 5624 5621 5618 5614 5611 5608 5604 5599 5593 5590 5588
5667 5668 5669 5671 5671 5671 5671 5671 5671 5671 5670 5670 5668 5667 5666 5665 5666 5664 5662 5660 5659 5657 5655 5653 5653 5650 5646 5643 5641 5638 5634 5632 5628 5624 5620 5614 5611 5607 5603 5598 5594 5593 5590 5584 5579 5578 5567
5659 5660 5661 5662 5661 5662 5663 5663 5663 5663 5662 5662 5661 5660 5658 5657 5656 5654 5652 5651 5648 5644 5644 5642 5640 5636 5633 5631 5626 5623 5620 5617 5613 5610 5606 5601 5596 5592 5589 5583 5579 5578 5574 5570 5566 5562 5555
5650 5651 5652 5653 5653 5653 5655 5654 5655 5655 5654 5653 5652 5651 5648 5647 5645 5643 5641 5638 5635 5632 5631 5628 5624 5621 5619 5616 5612 5607 5604 5601 5598 5595 5592 5587 5583 5578 5574 5568 5563 5562 5562 5554 5550 5546 5538
5641 5643 5643 5644 5644 5644 5645 5646 5646 5646 5646 5644 5643 5641 5639 5637 5634 5632 5628 5626 5623 5619 5616 5614 5611 5608 5605 5601 5596 5592 5590 5586 5583 5581 5577 5573 5568 5562 5558 5553 5548 5548 5542 5537 5533 5530 5522
5634 5634 5635 5635 5636 5637 5636 5636 5637 5637 5636 5634 5632 5631 5628 5626 5624 5621 5617 5614 5610 5606 5603 5600 5598 5595 5592 5588 5582 5577 5575 5572 5571 5567 5564 5559 5553 5547 5541 5537 5536 5531 5524 5520 5516 5512 5502
5624 5626 5627 5627 5628 5628 5627 5627 5627 5627 5626 5625 5623 5620 5619 5617 5617 5610 5605 5601 5596 5594 5592 5589 5586 5582 5578 5574 5571 5565 5560 5557 5554 5551 5547 5543 5537 5532 5526 5520 5516 5512 5507 5503 5495 5493 5490
5616 5617 5619 5620 5621 5620 5619 5618 5619 5618 5618 5615 5614 5610 5608 5606 5604 5598 5595 5590 5585 5581 5578 5576 5572 5569 5566 5562 5557 5553 5549 5544 5540 5536 5534 5528 5521 5516 5509 5502 5501 5498 5493 5487 5483 5482 5471
5608 5609 5611 5612 5612 5612 5612 5611 5609 5607 5608 5606 5604 5600 5597 5594 5592 5589 5584 5580 5574 5570 5567 5565 5560 5558 5554 5548 5544 5539 5534 5530 5525 5522 5516 5511 5505 5501 5494 5487 5483 5481 5476 5471 5465 5459 5454
5601 5602 5603 5603 5604 5604 5603 5602 5600 5599 5598 5595 5593 5589 5585 5583 5581 5577 5572 5567 5562 5558 5555 5552 5548 5544 5539 5534 5531 5525 5520 5515 5511 5507 5501 5496 5491 5486 5481 5475 5468 5463 5458 5453 5448 5442 5436